Location: Darlington Observatory
(36.4817°N, 105.8156°W)
Time: 05:59:13
(UTC-06:00)

NOSS 3-3 (A) - Visible Passes

Search period start: 25 July 2016 00:00
Search period end: 04 August 2016 00:00
Orbit: 930 x 1283 km, 63.4° (Epoch: 20 July)

Date Brightness Start Highest point End Pass type
(mag) Time Alt. Az. Time Alt. Az. Time Alt. Az.
25 Jul 6.2 00:47:44 12° ENE 00:47:44 12° ENE 00:48:43 10° ENE visible
25 Jul 4.0 02:35:10 73° NW 02:35:10 73° NW 02:41:42 10° NNE visible
25 Jul 6.1 04:23:31 10° WNW 04:27:17 16° NW 04:31:12 10° N visible
26 Jul 4.5 01:51:45 54° ENE 01:51:45 54° ENE 01:56:58 10° NE visible
26 Jul 5.7 03:39:11 17° WNW 03:41:58 23° NW 03:47:11 10° N visible
27 Jul 5.3 01:08:20 29° ENE 01:08:20 29° ENE 01:11:57 10° NE visible
27 Jul 5.0 02:55:45 32° WNW 02:56:52 34° NW 03:02:55 10° NNE visible
28 Jul 6.0 00:24:51 16° ENE 00:24:51 16° ENE 00:26:30 10° ENE visible
28 Jul 4.5 02:12:16 54° NW 02:12:16 54° NW 02:18:28 10° NNE visible
28 Jul 6.3 04:01:53 10° NW 04:04:35 13° NNW 04:07:22 10° N visible
29 Jul 4.5 01:28:46 55° NNE 01:28:46 55° NNE 01:33:51 10° NNE visible
29 Jul 6.0 03:16:12 14° WNW 03:19:10 18° NW 03:23:38 10° N visible
30 Jul 5.2 00:45:13 34° NE 00:45:13 34° NE 00:49:01 10° NE visible
30 Jul 5.5 02:32:39 25° WNW 02:33:56 27° NW 02:39:30 10° NNE visible
31 Jul 5.8 00:01:38 20° ENE 00:01:38 20° ENE 00:03:52 10° NE visible
31 Jul 4.9 01:49:03 41° NW 01:49:03 41° NW 01:55:10 10° NNE visible
31 Jul 6.7 03:41:27 10° NNW 03:41:58 10° NNW 03:42:27 10° NNW visible
31 Jul 6.3 23:18:00 10° ENE 23:18:00 10° ENE 23:18:07 10° ENE visible
01 Aug 4.6 01:05:24 52° N 01:05:24 52° N 01:10:39 10° NNE visible
01 Aug 6.3 02:53:00 10° WNW 02:56:25 14° NNW 02:59:58 10° N visible
02 Aug 4.9 00:21:44 42° NE 00:21:44 42° NE 00:25:58 10° NE visible
02 Aug 5.9 02:09:08 19° WNW 02:11:04 21° NW 02:16:02 10° N visible
02 Aug 5.4 23:37:59 27° ENE 23:37:59 27° ENE 23:41:02 10° NE visible
03 Aug 5.3 01:25:23 31° NW 01:25:55 31° NW 01:31:48 10° NNE visible
03 Aug 5.9 22:54:10 16° ENE 22:54:10 16° ENE 22:55:42 10° NE visible
